www.pogodaiklimat.ru

Погода и климат >> Архив погоды >> Бельгия >> Спа


ПОГОДА в Спа

  • Прогноз погоды в Спа
  • Монитор погоды в Спа

АРХИВ ПОГОДЫ в Спа

Время (UTC), дата Ветер
(напр.,м/с)
 
Видим.   Явления Облачность Т
(С)
Тd
(С)
f
(%)
Тe
(С)
Тes
(С)
Комфортность P
(гПа)
Po
(гПа)
Тmin
(С)
Tmax
(С)
R
(мм)
R24
(мм)
S
(см)
10 12.05 С 5
{8}
35 км 10/10 900 м
[]
+7.0 -0.5 59 +3 +3 1034.0 975.9
11 12.05 С 5
{8}
35 км 8/8 930 м
[]
+8.2 +0.2 57 +5 +7 1034.0 976.2
12 12.05 С 4
{9}
35 км 3/3 1110 м
[]
+9.0 -0.8 50 +7 +14 1034.0 976.4
13 12.05 С 5
{9}
35 км 9/9 1080 м
[]
+8.4 +0.2 56 +5 +6 1034.5 976.8
14 12.05 С 4
{8}
45 км 9/9 1200 м
[]
+9.2 +0.1 53 +7 +8 1034.7 977.1
15 12.05 СВ 4
{9}
35 км 10/10 1300 м
[]
+9.4 -0.7 49 +7 +7 1034.7 977.1
16 12.05 С 3
{8}
40 км 10/10 1500 м
[]
+9.1 +0.2 54 +7 +7 1035.1 977.4
17 12.05 С 3
{6}
40 км 6/6 1500 м
[]
+9.9 +1.2 55 +8 +9 1035.2 977.7
18 12.05 С 2
{9}
45 км 4/4 1500 м
[]
+8.4 +0.8 59 +7 +7 1035.7 977.9 +11.2
19 12.05 С 1
{4}
45 км 10/10 1500 м
[]
+7.8 +0.5 60 +7 +7 1036.2 978.2
20 12.05 СВ 1
{3}
45 км 8/8 1500 м
[]
+7.4 +0.2 60 +7 +7 1036.8 978.7
21 12.05 В 1
{4}
45 км ясно +5.2 -1.5 62 +4 +4 1037.5 978.9
22 12.05 В 1
{2}
45 км ясно +4.6 -1.6 64 +4 +4 1037.9 979.1
23 12.05 В 1
{3}
45 км ясно +4.5 -1.5 65 +4 +4 1038.3 979.5
00 13.05 В 2
{4}
45 км 5/5 1320 м
[]
+3.9 -1.3 69 +1 +1 1038.5 979.6
01 13.05 В 1
{3}
45 км ясно +4.0 -0.6 72 +3 +3 1038.3 979.5
02 13.05 В 1
{2}
45 км ясно +2.8 -2.1 70 +2 +2 1038.7 979.6
03 13.05 В 2
{3}
45 км ясно +2.7 -1.5 74 -0 -0 1038.6 979.5
04 13.05 В 3
{3}
40 км ясно +2.1 -2.4 72 -2 -2 1038.9 979.6
05 13.05 В 3
{4}
40 км ясно +3.9 -0.7 72 0 +1 1038.8 979.9
06 13.05 В 3
{5}
40 км ясно +5.6 -1.2 62 +3 +5 1038.5 980.0 +1.7
07 13.05 СВ 2
{6}
30 км ясно +6.9 -3.8 46 +5 +10 1038.6 980.3
08 13.05 В 4
{8}
40 км ясно +8.0 -6.8 34 +6 +11 1038.8 980.7
09 13.05 СВ 5
{8}
35 км ясно +9.3 -6.4 32 +7 +13 1038.5 980.7
10 13.05 В 4
{8}
45 км ясно +10.3 -7.2 28 +8 +18 опасность
простуды
1038.4 980.7
11 13.05 СВ 4
{8}
45 км ясно +11.4 -4.9 32 +10 +21 опасность
простуды
1037.8 980.4
12 13.05 С 4
{10}
40 км ясно +12.0 -1.2 40 +10 +21 опасность
простуды
1037.3 980.1
13 13.05 С 5
{9}
35 км ясно +11.7 -3.5 34 +10 +18 1037.0 979.7
14 13.05 С 5
{9}
40 км ясно +11.9 -3.7 33 +10 +16 1036.7 979.5
15 13.05 С 5
{10}
40 км ясно +12.1 -2.6 36 +10 +15 1036.3 979.2
16 13.05 С 4
{9}
35 км ясно +12.3 -1.4 39 +11 +15 1036.0 978.9
17 13.05 С 5
{10}
35 км ясно +11.8 -2.6 36 +10 +11 1035.9 978.7
18 13.05 СВ 3
{10}
35 км ясно +11.0 -3.5 36 +10 +10 1035.9 978.5 +12.7
19 13.05 СВ 2
{7}
45 км ясно +9.3 -4.5 37 +8 +8 1036.0 978.3
20 13.05 В 1
{4}
45 км ясно +7.4 -4.9 41 +7 +7 1036.5 978.4
21 13.05 В 1
{7}
45 км ясно +6.4 -5.3 43 +6 +6 1036.6 978.3
22 13.05 В 1
{2}
45 км ясно +6.4 -5.0 44 +6 +6 1036.5 978.2
23 13.05 нст 1
{3}
45 км ясно +5.8 -4.6 47 +5 +5 1036.4 977.9
00 14.05 В 1
{7}
45 км ясно +6.0 -3.7 50 +6 +6 1036.0 977.6
01 14.05 СВ 1
{4}
45 км ясно +5.1 -4.0 52 +4 +4 1035.4 976.9
02 14.05 СВ 1
{2}
45 км ясно +3.6 -4.6 55 +3 +3 1035.7 976.9
03 14.05 СВ 1
{4}
45 км ясно +3.1 -4.7 57 +2 +2 1035.3 976.4
04 14.05 В 1
{2}
45 км ясно +2.2 -4.8 60 +1 +1 1035.4 976.2
05 14.05 З 1
{1}
45 км ясно +2.9 -4.1 60 +2 +3 1035.1 976.2
06 14.05 С 1
{4}
40 км ясно +4.6 -2.4 60 +4 +6 1034.8 976.2 +2.1
07 14.05 С 1
{3}
30 км ясно +6.5 -0.4 61 +6 +12 1033.9 975.8
08 14.05 СВ 4
{6}
40 км ясно +8.5 -5.2 37 +6 +12 1033.2 975.5
09 14.05 СВ 5
{8}
40 км ясно +9.9 -6.1 32 +7 +14 1032.8 975.4
10 14.05 В 5
{8}
35 км ясно +10.8 -5.3 32 +9 +16 1032.4 975.2
11 14.05 СВ 5
{8}
45 км ясно +11.3 -3.0 37 +9 +18 1031.8 974.7
12 14.05 В 5
{11}
40 км ясно +11.3 -1.6 41 +9 +18 1031.4 974.4
13 14.05 СВ 4
{11}
30 км ясно +11.7 -0.1 44 +10 +20 опасность
простуды
1030.7 973.8
14 14.05 СВ 5
{9}
35 км 1/1 1500 м
[]
+12.4 -0.4 41 +11 +16 1029.9 973.2
15 14.05 СВ 4
{11}
30 км 1/1 1500 м
[]
+12.2 -0.2 42 +11 +16 1029.3 972.6
16 14.05 СВ 4
{9}
30 км 1/1 1500 м
[]
+12.8 +1.3 45 +11 +15 1028.7 972.1
17 14.05 СВ 3
{8}
30 км ясно +12.1 +0.3 44 +11 +13 1028.6 971.9
18 14.05 СВ 4
{11}
35 км 9/9 1500 м
[]
+11.3 +0.3 47 +9 +10 1028.8 971.9 +13.7
19 14.05 СВ 3
{7}
45 км ясно +9.5 -0.2 51 +8 +8 1028.9 971.7
20 14.05 В 1
{6}
45 км ясно +8.0 -2.4 48 +8 +8 1029.3 971.7
21 14.05 В 3
{7}
50 км ясно +7.9 -1.9 50 +6 +6 1029.1 971.6
22 14.05 В 3
{6}
45 км ясно +7.8 -1.8 51 +6 +6 1028.8 971.3
23 14.05 В 4
{6}
45 км ясно +7.4 -2.3 50 +5 +5 1028.8 971.2
00 15.05 В 3
{7}
50 км ясно +7.0 -2.8 50 +5 +5 1028.5 970.7
01 15.05 В 3
{6}
50 км ясно +6.7 -3.1 50 +4 +4 1028.0 970.2
02 15.05 В 4
{6}
45 км ясно +6.6 -3.4 49 +4 +4 1027.8 970.0
03 15.05 ЮВ 4
{6}
50 км ясно +5.9 -3.8 50 +3 +3 1027.8 969.9
04 15.05 ЮВ 4
{6}
50 км ясно +5.9 -3.6 50 +3 +3 1027.7 969.8
05 15.05 ЮВ 3
{5}
45 км ясно +6.2 -3.2 51 +4 +4 1027.6 969.8
06 15.05 В 2
{6}
40 км ясно +8.7 -1.2 50 +7 +10 1027.0 969.7 +5.3
07 15.05 В 4
{7}
35 км ясно +9.2 -2.6 43 +7 +10 1026.8 969.6
08 15.05 В 5
{9}
40 км ясно +9.6 -2.9 41 +7 +11 1026.7 969.6
09 15.05 СВ 5
{9}
35 км ясно +10.4 -4.0 36 +8 +14 1026.1 969.2
10 15.05 СВ 3
{8}
35 км ясно +11.3 -3.1 36 +10 +22 опасность
простуды
1025.4 968.7
11 15.05 С 4
{10}
35 км ясно +11.5 -1.4 41 +10 +21 опасность
простуды
1024.9 968.2
12 15.05 С 5
{10}
30 км ясно +11.7 -3.4 35 +10 +18 1024.3 967.7
13 15.05 С 4
{10}
35 км ясно +12.5 -4.4 30 +11 +21 опасность
простуды
1023.7 967.3
14 15.05 С 4
{10}
30 км ясно +13.3 -3.5 31 +12 +20 1023.1 966.9
15 15.05 В 4
{10}
40 км ясно +14.0 -2.8 31 +13 +19 1022.7 966.6
16 15.05 СВ 3
{8}
30 км ясно +13.7 -1.2 36 +13 +18 1022.3 966.2
17 15.05 СВ 4
{8}
30 км ясно +13.2 -1.4 36 +12 +14 1022.0 965.8
18 15.05 СВ 3
{10}
40 км ясно +12.0 -1.5 39 +11 +12 1022.4 966.0 +14.1
19 15.05 СВ 3
{8}
45 км ясно +10.0 -1.8 44 +8 +8 1022.9 966.1
20 15.05 В 1
{5}
45 км ясно +8.3 -4.1 41 +8 +8 1023.3 966.1
21 15.05 В 1
{8}
50 км ясно +7.6 -4.4 42 +7 +7 1023.0 965.7
22 15.05 В 3
{5}
45 км ясно +7.7 -3.2 46 +6 +6 1022.7 965.5
23 15.05 В 5
{7}
50 км ясно +7.7 -2.6 48 +4 +4 1022.2 965.0
00 16.05 ЮВ 4
{8}
50 км ясно +6.5 -3.8 48 +3 +3 1022.0 964.5
01 16.05 ЮВ 4
{7}
45 км ясно +6.1 -3.9 49 +3 +3 1021.5 964.0
02 16.05 ЮВ 3
{6}
45 км ясно +5.4 -4.3 50 +3 +3 1021.3 963.7
03 16.05 В 3
{7}
45 км ясно +6.1 -3.4 51 +3 +3 1020.8 963.3
04 16.05 В 3
{5}
50 км ясно +5.7 -2.9 54 +3 +3 1020.7 963.1
05 16.05 СВ 1
{4}
45 км ясно +5.1 -2.7 57 +4 +5 1020.6 962.9
06 16.05 СВ 2
{7}
45 км ясно +7.2 +0.1 61 +5 +8 1019.9 962.7 +4.6
07 16.05 СВ 3
{6}
40 км ясно +8.7 +0.2 55 +7 +11 1019.2 962.3
08 16.05 В 5
{8}
40 км ясно +9.7 -0.3 50 +7 +11 1018.7 962.1
09 16.05 С 4
{9}
40 км 5/5 1140 м
[]
+10.2 +0.7 52 +8 +12 1018.1 961.6
10 16.05 СВ 3
{7}
35 км 6/6 1300 м
[]
+10.9 +0.8 50 +9 +14 1017.5 961.2
11 16.05 С 4
{9}
35 км 10/10 1170 м
[]
+11.3 +1.4 51 +9 +9 1017.0 960.8
12 16.05 С 5
{9}
24 км 10/10 1200 м
[]
+11.2 +1.1 50 +9 +9 1016.5 960.3
13 16.05 С 5
{8}
40 км 10/10 1230 м
[]
+11.8 +2.9 54 +10 +10 1015.8 959.7
14 16.05 С 5
{9}
28 км 1/1 1200 м
[]
+12.2 +2.4 51 +10 +16 1015.1 959.1
15 16.05 С 4
{9}
28 км ясно +12.6 +3.1 52 +11 +17 1014.2 958.4
16 16.05 С 4
{11}
30 км ясно +13.6 +4.8 55 +12 +16 1013.3 957.8
17 16.05 СВ 3
{11}
30 км 4/4 930 м
[]
+12.8 +4.8 58 +12 +13 1012.9 957.2
18 16.05 СВ 3
{11}
25 км ясно +11.5 +4.9 64 +10 +11 1012.8 956.9 +13.6
19 16.05 С 3
{6}
25 км 10/10 660 м
[]
+9.9 +4.6 70 +8 +8 1012.7 956.5
20 16.05 СВ 3
{5}
23 км 10/10 540 м
[]
+9.2 +4.8 74 +7 +7 1012.7 956.4
21 16.05 В 1
{6}
17 км 10/10 720 м
[]
+8.6 +2.9 67 +8 +8 1012.6 956.1
22 16.05 В 2
{5}
17 км 10/10 800 м
[]
+8.6 +3.0 68 +7 +7 1011.8 955.4
23 16.05 СВ 1
{3}
18 км 10/10 750 м
[]
+8.0 +2.8 70 +7 +7 1011.3 954.8
00 17.05 СВ 1
{6}
15 км 10/10 1020 м
[]
+7.8 +2.9 71 +7 +7 1010.6 954.1
01 17.05 штиль 0
{2}
14 км 10/10 600 м
[]
+7.7 +2.5 70 +7 +7 1009.7 953.2
02 17.05 В 1
{1}
12 км осадки 10/10 630 м
[]
+7.2 +2.4 72 +6 +6 1009.2 952.7
03 17.05 В 1
{2}
10 км морось {дождь} 10/10 540 м
[]
+7.0 +2.3 72 +6 +6 1008.7 952.2
04 17.05 штиль 0
{2}
4100 м морось 10/10 500 м
[]
+6.5 +2.1 73 +6 +6 1008.6 951.9
05 17.05 нст 1
{2}
3500 м морось {дождь} 10/10 180 м
[]
+6.8 +2.6 75 +6 +6 1008.5 951.9
06 17.05 ЮВ 2
{3}
3500 м слаб. дождь {морось, осадки} 10/10 120 м
[]
+6.8 +3.2 78 +5 +5 1008.2 951.7 +6.5
07 17.05 В 1
{4}
4200 м слаб. дождь {морось} 10/10 150 м
[]
+7.1 +3.3 77 +6 +6 1008.0 951.5
08 17.05 ЮВ 3
{4}
6000 м слаб. дождь 10/10 500 м
[]
+7.2 +4.1 81 +4 +4 1007.7 951.3
09 17.05 ЮВ 3
{5}
6000 м слаб. дождь {морось} 10/10 180 м
[]
+8.0 +4.7 80 +5 +5 1007.2 951.0
10 17.05 Ю 3
{5}
7000 м слаб. дождь 10/10 180 м
[]
+8.8 +5.7 81 +6 +6 1006.8 950.7
11 17.05 Ю 2
{4}
13 км 10/10 1020 м
[]
+10.1 +6.8 80 +9 +9 1006.3 950.6
12 17.05 ЮВ 2
{5}
15 км {дождь, дымка} 10/10 300 м
[]
+11.3 +8.1 81 +10 +10 1006.2 950.7 1
13 17.05 штиль 0
{3}
16 км 10/10 420 м
[]
+11.4 +7.9 79 +11 +11 1006.2 950.7
14 17.05 С 2
{3}
н/о 10/10 90 м
[]
+10.5 +8.6 88 +9 +9 1006.2 950.5
15 17.05 С 1
{3}
5000 м дымка 10/10 90 м
[]
+10.2 +7.5 83 +10 +10 1006.2 950.5
16 17.05 СВ 1
{3}
5000 м дымка 10/10 90 м
[]
+10.4 +9.6 95 +10 +10 1006.1 950.4
17 17.05 С 1
{2}
5000 м дымка 10/10 90 м
[]
+10.5 +7.3 81 +10 +10 1005.9 950.2
18 17.05 СВ 1
{3}
3700 м дымка 10/10 60 м
[]
+10.5 +9.5 94 +10 +10 1005.8 950.2 +11.7 1
19 17.05 СВ 1
{2}
3000 м дымка 10/10 60 м
[]
+10.5 +9.7 95 +10 +10 1005.9 950.2
20 17.05 С 1
{2}
1300 м дымка 10/10 60 м
[]
+10.3 +6.9 79 +10 +10 1006.3 950.5
21 17.05 В 1
{2}
400 м туман {дымка} 10/10 <50 м
[]
+10.0 +6.9 81 +10 +10 1006.3 950.5
22 17.05 ЮВ 3
{5}
12 км в посл. час туман 10/0 2000 м
[]
+10.4 +8.7 89 +8 +8 1006.0 950.3
23 17.05 ЮВ 4
{5}
11 км {туман} ясно +9.7 +8.6 93 +7 +7 1006.0 950.2
00 18.05 ЮВ 4
{5}
11 км {туман, дымка} ясно +9.6 +5.9 78 +7 +7 1006.0 950.1
01 18.05 ЮВ 4
{5}
12 км ясно +9.4 +5.9 79 +7 +7 1006.0 950.1
02 18.05 ЮВ 5
{6}
14 км ясно +9.9 +8.3 90 +7 +7 1005.7 949.9
03 18.05 Ю 5
{7}
19 км 10/10 1500 м
[]
+10.3 +6.6 78 +7 +7 1005.5 949.8
04 18.05 ЮВ 5
{7}
18 км 10/10 1500 м
[]
+10.3 +7.0 80 +7 +7 1005.1 949.4
05 18.05 ЮВ 5
{7}
12 км 10/10 1500 м
[]
+10.2 +9.0 92 +7 +7 1005.4 949.7
06 18.05 ЮВ 5
{7}
12 км 10/10 1500 м
[]
+11.1 +8.0 81 +8 +8 1005.4 949.9 +9.3
07 18.05 ЮВ 4
{7}
17 км ясно +11.7 +8.1 79 +10 +13 1005.6 950.2
08 18.05 нст 1
{6}
15 км 10/0 2000 м
[]
+12.0 +8.7 80 +12 +17 1006.0 950.6
09 18.05 Ю 3
{7}
30 км ясно +14.7 +9.5 71 +14 +24 1005.5 950.7
10 18.05 Ю 2
{5}
30 км 10/0 2000 м
[]
+15.0 +9.0 67 +15 +22 1005.8 951.0
11 18.05 ЮВ 3
{5}
35 км 9/9 1080 м
[]
+16.5 +9.4 63 +16 +18 1005.4 950.9
12 18.05 СЗ 3
{7}
30 км 10/10 960 м
[]
+15.8 +8.5 62 +15 +15 1005.4 950.8
13 18.05 С 2
{4}
27 км 10/10 960 м
[]
+16.2 +8.3 59 +16 +16 1005.4 950.8
14 18.05 СВ 3
{5}
23 км 10/10 1020 м
[]
+15.8 +10.2 69 +15 +15 1005.3 950.7
15 18.05 С 3
{5}
25 км 10/10 1000 м
[]
+15.5 +10.0 70 +15 +15 1005.3 950.7
16 18.05 нст 2
{5}
22 км 8/8 1200 м
[]
+15.3 +10.9 75 +15 +16 1005.4 950.7
17 18.05 С 3
{4}
21 км слаб. дождь 10/10 480 м
[]
+14.2 +9.8 75 +13 +13 1006.0 951.0
18 18.05 штиль 0
{6}
28 км {дождь, морось} 10/10 1470 м
[]
+12.2 +7.5 73 +12 +12 1006.5 951.2 +17.1 0.6
19 18.05 ЮВ 1
{3}
28 км ясно +11.9 +7.8 76 +12 +12 1006.7 951.2
20 18.05 ЮВ 2
{2}
26 км ясно +11.3 +7.5 77 +10 +10 1007.4 951.8
21 18.05 ЮЗ 1
{5}
25 км 10/10 1470 м
[]
+11.2 +7.4 77 +11 +11 1007.6 952.0
22 18.05 З 2
{3}
9000 м слаб. дождь {морось} 10/10 150 м
[]
+11.1 +7.9 81 +10 +10 1007.4 951.7
23 18.05 Ю 1
{2}
7000 м {дождь, морось} 4/4 1500 м
[]
+10.5 +9.1 91 +10 +10 1007.4 951.7
00 19.05 Ю 1
{5}
4600 м дымка {дождь} 10/10 1500 м
[]
+10.6 +10.6 100 +10 +10 1007.0 951.3 0.4
01 19.05 ЮВ 1
{2}
2400 м слаб. дождь {морось} 10/10 120 м
[]
+10.7 +6.9 77 +10 +10 1006.9 951.2
02 19.05 Ю 1
{3}
1900 м дождь {морось} 9/9 30 м
[]
+10.9 +7.2 78 +11 +11 1006.4 950.8
03 19.05 Ю 1
{3}
1500 м дымка {дождь} 6/6 1500 м
[]
+10.2 +10.2 100 +10 +10 1006.2 950.5
04 19.05 штиль 0
{1}
3100 м дымка 10/10 1500 м
[]
+10.4 +10.2 99 +10 +10 1006.0 950.4
05 19.05 З 1
{2}
3000 м дымка {дождь} 10/0 2000 м
[]
+10.6 +6.7 77 +10 +11 1005.9 950.2
06 19.05 СЗ 1
{3}
5000 м дымка {дождь} ясно +11.4 +8.0 80 +11 +14 1006.0 950.5 +10.1 3
07 19.05 СЗ 2
{3}
3300 м дымка 10/10 90 м
[]
+11.5 +10.4 93 +10 +10 1006.1 950.7
08 19.05 С 2
{3}
4600 м дымка 8/8 120 м
[]
+12.5 +9.6 82 +12 +13 1006.0 950.7

 

Местоположение метеостанции Спа (Бельгия): широта 50.48 долгота 5.92 высота над уровнем моря 482 м.

В архиве по умолчанию представлена погода в Спа за последнюю неделю. Архивные данные за месяц целиком и за предыдущие месяцы, начиная с января 2011 года, Вы можете получить, выбрав интересующий диапазон дат из раскрывающегося списка и нажав кнопку "Ввод!".


*Определитесь, кто Вы:
робот инопланетянин человек

Внимание! Время в таблицах - всемирное. Для получения местного времени необходимо прибавить поправку, которая равна 1 ч.

Смотрите также архив погоды в соседних городах и на ближайших метеорологических станциях:

Погода на Монт-Риги (Бельгия) (12 км)
Погода в Элзенборне (Бельгия) (18 км)
Погода в Ахен-Орсбахе (Германия) (34 км)
Погода в Бьерсете (Бельгия) (38 км)
Погода в Маастрихте (Нидерланды) (50 км)
Погода в Гайленкирхене (Германия) (55 км)
Погода в Гумане (Бельгия) (57 км)
Погода в Дипенбеке (Бельгия) (59 км)
Погода в Сент-Губерте (Бельгия) (62 км)
Погода в Нёрфенихе (Германия) (66 км)

Пояснения к столбцам:

Ветер - указаны скорость ветра в м/с - средняя за 10 мин, порывы в срок и между сроками (в фигурных скобках) и направление, откуда дует ветер: С - северный, СВ - северо-восточный, В - восточный, ЮВ - юго-восточный, Ю - южный, ЮЗ - юго-западный, З - западный, СЗ - северо-западный.
Видимость - горизонтальная дальность видимости в метрах или километрах. При видимости от 1 до 10 км при отсутствии осадков обычно наблюдается дымка, при ухудшении видимости до 1 км и менее - туман. В сухую погоду видимость может ухудшаться дымом, пылью или мглою.
Явления - указаны атмосферные явления, наблюдавшиеся в срок или в последний час перед сроком; фигурными скобками обозначены явления, наблюдавшиеся между сроками (за 1-3 часа до срока); квадратными скобками обозначены град или гололедные отложения с указанием их диаметра в мм.
Облачность - указаны через наклонную черту общая и нижняя облачность в баллах и высота нижней границы облаков в метрах; квадратными скобками обозначены формы облаков: Ci - перистые, Cs - перисто-слоистые, Cc - перисто-кучевые, Ac - высококучевые, As - высокослоистые, Sc - слоисто-кучевые, Ns - слоисто-дождевые, Cu - кучевые, Cb - кучево-дождевые. Подробнее классификацию облаков см. в Атласе облаков (PDF).
T - Температура воздуха - температура, измеренная на высоте 2 м над землей.
Td - Температура точки росы - температура, при понижении до которой содержащийся в воздухе водяной пар достигнет насыщения.
f - Относительная влажность воздуха - влажноcть воздуха, измеренная на высоте 2 м над землей.
Te - Эффективная температура - температура, которую ощущает одетый по сезону человек в тени. Характеристика душности погоды. При расчете учитывается влияние влажности воздуха и скорости ветра на теплоощущения человека.
Tes - Эффективная температура на солнце - температура, которую ощущает человек, с поправкой на солнечный нагрев. Характеристика знойности погоды. Зависит от высоты солнца над горизонтом, облачности и скорости ветра. Ночью, в пасмурную погоду, а также при ветре 12 м/с и более поправка равна нулю.
P - Атмосферное давление - приведенное к уровню моря атмосферное давление.
Po - Атмосферное давление - измеренное на уровне метеостанции атмосферное давление.
Tmin - Минимальная температура - минимум температуры воздуха на высоте 2 м над землей.
Tmax - Максимальная температура - максимум температуры воздуха на высоте 2 м над землей.
R - Количество осадков - Количество выпавших осадков за период времени, мм. При наведении курсора мыши на число - период времени, за который выпало указанное количество осадков.
R24 - Количество осадков - Количество выпавших осадков за 24 часа, мм.
S - Снежный покров - Высота снежного покрова, см. При наведении курсора мыши на число - состояние снежного покрова и степень покрытия местности в баллах.